This is the latest recevied weather packets stored in our database for station/object WX5HOT. If no packets are shown the sender has not sent any weather packets the latest 10 day(s).
| Time | Temp. | Humidity | Pressure | Rain* | Wind** | Luminosity | Snow |
|---|---|---|---|---|---|---|---|
| 1777593119 | 13.33° C | 72% | 1065.1 hPa | 0 mm | - | 83 W/m² | - |
| 1777592819 | 13.33° C | 72% | 1064.9 hPa | 0 mm | - | 80 W/m² | - |
| 1777592516 | 13.33° C | 72% | 1064.5 hPa | 0 mm | - | 87 W/m² | - |
| 1777592216 | 13.33° C | 74% | 1065 hPa | 0 mm | - | 93 W/m² | - |
| 1777591913 | 13.33° C | 74% | 1064.8 hPa | 0 mm | - | 97 W/m² | - |
| 1777591609 | 13.33° C | 73% | 1065 hPa | 0 mm | - | 97 W/m² | - |
| 1777591305 | 13.89° C | 72% | 1065.2 hPa | 0 mm | - | 106 W/m² | - |
| 1777591002 | 13.89° C | 72% | 1064.8 hPa | 0 mm | - | 127 W/m² | - |
| 1777590702 | 13.89° C | 72% | 1065.1 hPa | 0 mm | - | 134 W/m² | - |
| 1777590399 | 13.89° C | 71% | 1065 hPa | 0 mm | - | 146 W/m² | - |
| 1777590096 | 13.89° C | 72% | 1065 hPa | 0 mm | - | 147 W/m² | - |
| 1777589792 | 13.89° C | 71% | 1065.1 hPa | 0 mm | - | 146 W/m² | - |
| 1777589492 | 14.44° C | 71% | 1064.8 hPa | 0 mm | - | 172 W/m² | - |
| 1777589186 | 14.44° C | 70% | 1064.8 hPa | 0 mm | - | 188 W/m² | - |
| 1777588883 | 14.44° C | 70% | 1065.1 hPa | 0 mm | - | 201 W/m² | - |
| 1777588579 | 15° C | 70% | 1065 hPa | 0 mm | - | 205 W/m² | - |
| 1777588274 | 15° C | 69% | 1065.2 hPa | 0 mm | - | 260 W/m² | - |
| 1777587970 | 14.44° C | 70% | 1064.9 hPa | 0 mm | - | 279 W/m² | - |
| 1777587666 | 14.44° C | 69% | 1064.6 hPa | 0 mm | - | 295 W/m² | - |
| 1777587366 | 14.44° C | 69% | 1064.8 hPa | 0 mm | - | 300 W/m² | - |
| 1777587062 | 14.44° C | 70% | 1065 hPa | 0 mm | - | 263 W/m² | - |
| 1777586758 | 15° C | 70% | 1065 hPa | 0 mm | - | 267 W/m² | - |
| 1777586454 | 15° C | 69% | 1065 hPa | 0 mm | - | 260 W/m² | - |
| 1777586149 | 15.56° C | 70% | 1064.9 hPa | 0 mm | - | 285 W/m² | - |
| 1777585847 | 15° C | 70% | 1065.2 hPa | 0 mm | - | 475 W/m² | - |
* Rain latest hour (hover to see other rain measurements)
** Current wind speed in m/s (hover to see current wind gust speed)